Location: Unspecified
(0.0000°N, 0.0000°E)
Time: 06:41:15
(UTC+00:00)

ISS - All Passes

Search period start: 16 June 2019 00:00
Search period end: 26 June 2019 00:00
Orbit: 408 x 418 km, 51.6° (Epoch: 16 June)

Date Brightness Start Highest point End Pass type
(mag) Time Alt. Az. Time Alt. Az. Time Alt. Az.
16 Jun - 06:20:44 10° SSW 06:23:49 37° SE 06:26:53 10° ENE daylight
16 Jun - 17:56:17 10° N 17:59:00 24° NE 18:01:46 10° ESE daylight
16 Jun - 19:34:42 10° WSW 19:35:29 11° SW 19:36:17 10° SW visible
17 Jun - 05:32:16 10° SSE 05:34:21 16° SE 05:36:25 10° E visible
17 Jun - 07:08:44 10° W 07:10:49 16° NW 07:12:53 10° NNW daylight
17 Jun - 17:08:59 10° NE 17:09:32 10° NE 17:10:06 10° ENE daylight
17 Jun - 18:43:14 10° WNW 18:46:00 24° SW 18:48:47 10° S visible
18 Jun - 06:18:15 10° SW 06:21:21 37° NW 06:24:25 10° NNE daylight
18 Jun - 17:53:14 10° NW 17:56:31 63° SW 17:59:51 10° SSE daylight
19 Jun - 05:28:34 10° SSW 05:31:52 77° SE 05:35:09 10° NE visible
19 Jun - 17:03:51 10° NNW 17:07:03 45° NE 17:10:15 10° SE daylight
20 Jun - 04:39:29 10° S 04:42:24 28° SE 04:45:17 10° ENE visible
20 Jun - 16:15:09 10° N 16:17:33 18° NE 16:19:57 10° E daylight
20 Jun - 17:52:16 10° W 17:54:01 14° SW 17:55:47 10° SSW daylight
21 Jun - 03:51:26 10° SSE 03:52:52 12° SE 03:54:18 10° E visible
21 Jun - 05:26:49 10° WSW 05:29:20 20° NW 05:31:50 10° N visible
21 Jun - 17:01:30 10° WNW 17:04:30 31° SW 17:07:30 10° S daylight
22 Jun - 04:36:36 10° SW 04:39:50 50° NW 04:43:02 10° NNE visible
22 Jun - 16:11:40 10° NW 16:14:58 87° WSW 16:18:19 10° SE daylight
23 Jun - 03:47:03 10° SSW 03:50:19 55° SE 03:53:33 10° NE visible
23 Jun - 15:22:25 10° NNW 15:25:28 33° NE 15:28:30 10° ESE daylight
24 Jun - 02:58:08 10° S 03:00:46 22° SE 03:03:24 10° ENE visible
24 Jun - 04:36:08 10° WNW 04:37:14 11° NW 04:38:20 10° NW visible
24 Jun - 14:34:02 10° NNE 14:35:55 14° NE 14:37:48 10° E daylight
24 Jun - 16:10:04 10° W 16:12:22 17° SW 16:14:40 10° S daylight
25 Jun - 03:44:50 10° WSW 03:47:40 26° NW 03:50:29 10° N visible
25 Jun - 15:19:39 10° NW 15:22:48 41° SW 15:25:59 10° SSE daylight
